Time,TemperatureF,DewpointF,PressureIn,WindDirection,WindDirectionDegrees,WindSpeedMPH,WindSpeedGustMPH,Humidity,HourlyPrecipIn,Conditions,Clouds,dailyrainin,SoftwareType,DateUTC
2014-12-21 00:23:00,28.0,24.0,-100.00,WSW,250,0.0,2.0,82,0.00,,,-99.99,,2014-12-21 05:23:00,
2014-12-21 00:52:00,29.0,24.0,-100.00,SSW,195,0.0,1.0,81,0.00,,,-99.99,,2014-12-21 05:52:00,
2014-12-21 01:22:00,29.0,23.0,-100.00,South,180,1.0,2.0,79,0.00,,,-99.99,,2014-12-21 06:22:00,
2014-12-21 01:42:00,29.0,24.0,-100.00,South,185,1.0,2.0,79,0.00,,,-99.99,,2014-12-21 06:42:00,
2014-12-21 01:52:00,29.0,24.0,-100.00,South,185,1.0,2.0,79,0.00,,,-99.99,,2014-12-21 06:52:00,
2014-12-21 02:22:00,29.0,24.0,-100.00,ENE,65,0.0,2.0,79,0.00,,,-99.99,,2014-12-21 07:22:00,
2014-12-21 02:32:00,29.0,24.0,-100.00,ENE,65,0.0,2.0,79,0.00,,,-99.99,,2014-12-21 07:32:00,
2014-12-21 02:52:00,29.0,24.0,-100.00,South,170,0.0,1.0,80,0.00,,,-99.99,,2014-12-21 07:52:00,
2014-12-21 03:02:00,29.0,24.0,-100.00,South,170,0.0,1.0,80,0.00,,,-99.99,,2014-12-21 08:02:00,
2014-12-21 03:12:00,29.0,24.0,-100.00,South,170,0.0,1.0,80,0.00,,,-99.99,,2014-12-21 08:12:00,
2014-12-21 03:22:00,29.0,24.0,-100.00,South,170,0.0,1.0,80,0.00,,,-99.99,,2014-12-21 08:22:00,
2014-12-21 03:42:00,28.0,23.0,-100.00,NNW,345,0.0,2.0,81,0.00,,,-99.99,,2014-12-21 08:42:00,
2014-12-21 03:52:00,28.0,23.0,-100.00,NNE,30,0.0,2.0,83,0.00,,,-99.99,,2014-12-21 08:52:00,
2014-12-21 04:02:00,28.0,23.0,-100.00,NNE,30,0.0,2.0,83,0.00,,,-99.99,,2014-12-21 09:02:00,
2014-12-21 04:22:00,27.0,23.0,-100.00,West,280,0.0,1.0,85,0.00,,,-99.99,,2014-12-21 09:22:00,
2014-12-21 04:44:00,26.0,22.0,-100.00,WNW,295,0.0,0.0,85,0.00,,,-99.99,,2014-12-21 09:44:00,
2014-12-21 04:53:00,26.0,22.0,-100.00,West,280,0.0,0.0,86,0.00,,,-99.99,,2014-12-21 09:53:00,
2014-12-21 05:04:00,26.0,22.0,-100.00,West,280,0.0,0.0,86,0.00,,,-99.99,,2014-12-21 10:04:00,
2014-12-21 05:23:00,25.0,22.0,-100.00,NNW,335,0.0,1.0,87,0.00,,,-99.99,,2014-12-21 10:23:00,
2014-12-21 05:42:00,24.0,21.0,-100.00,NNW,330,0.0,0.0,86,0.00,,,-99.99,,2014-12-21 10:42:00,
2014-12-21 05:53:00,24.0,21.0,-100.00,NNW,335,0.0,0.0,88,0.00,,,-99.99,,2014-12-21 10:53:00,
2014-12-21 06:03:00,24.0,21.0,-100.00,NNW,335,0.0,0.0,88,0.00,,,-99.99,,2014-12-21 11:03:00,
2014-12-21 06:22:00,24.0,21.0,-100.00,WNW,300,0.0,0.0,88,0.00,,,-99.99,,2014-12-21 11:22:00,
2014-12-21 06:42:00,24.0,21.0,-100.00,NNW,345,0.0,0.0,88,0.00,,,-99.99,,2014-12-21 11:42:00,
2014-12-21 06:53:00,23.0,20.0,-100.00,West,275,0.0,1.0,89,0.00,,,-99.99,,2014-12-21 11:53:00,
2014-12-21 07:02:00,23.0,20.0,-100.00,West,275,0.0,1.0,89,0.00,,,-99.99,,2014-12-21 12:02:00,
2014-12-21 07:23:00,23.0,20.0,-100.00,NNW,335,0.0,1.0,89,0.00,,,-99.99,,2014-12-21 12:23:00,
2014-12-21 07:43:00,23.0,20.0,-100.00,NNW,335,0.0,1.0,88,0.00,,,-99.99,,2014-12-21 12:43:00,
2014-12-21 07:53:00,23.0,20.0,-100.00,North,5,0.0,2.0,87,0.00,,,-99.99,,2014-12-21 12:53:00,
2014-12-21 08:02:00,23.0,20.0,-100.00,North,5,0.0,2.0,87,0.00,,,-99.99,,2014-12-21 13:02:00,
2014-12-21 08:22:00,22.0,19.0,-100.00,South,170,0.0,1.0,88,0.00,,,-99.99,,2014-12-21 13:22:00,
2014-12-21 08:42:00,21.0,19.0,-100.00,East,85,0.0,1.0,89,0.00,,,-99.99,,2014-12-21 13:42:00,
2014-12-21 08:52:00,24.0,22.0,-100.00,ESE,110,0.0,2.0,90,0.00,,,-99.99,,2014-12-21 13:52:00,
2014-12-21 09:02:00,24.0,22.0,-100.00,ESE,110,0.0,2.0,90,0.00,,,-99.99,,2014-12-21 14:02:00,
2014-12-21 09:22:00,26.0,23.0,-100.00,SE,125,0.0,1.0,87,0.00,,,-99.99,,2014-12-21 14:22:00,
2014-12-21 09:52:00,28.0,24.0,-100.00,NE,55,0.0,2.0,82,0.00,,,-99.99,,2014-12-21 14:52:00,
2014-12-21 10:22:00,30.0,23.0,-100.00,NNE,20,3.0,6.0,75,0.00,,,-99.99,,2014-12-21 15:22:00,
2014-12-21 10:53:00,31.0,22.0,-100.00,ENE,65,5.0,8.0,69,0.00,,,-99.99,,2014-12-21 15:53:00,